This is the latest recevied weather packets stored in our database for station/object RW6A-13. If no packets are shown the sender has not sent any weather packets the latest 10 day(s).
| Time | Temp. | Humidity | Pressure | Rain* | Wind** | Luminosity | Snow |
|---|---|---|---|---|---|---|---|
| 1777717049 | 10.56° C | 66% | 1016.6 hPa | 0 mm | - | - | - |
| 1777716749 | 11.11° C | 64% | 1016.4 hPa | 0 mm | - | - | - |
| 1777716449 | 11.67° C | 65% | 1016.2 hPa | 0 mm | - | - | - |
| 1777716149 | 11.67° C | 66% | 1016.2 hPa | 0 mm | - | - | - |
| 1777715849 | 11.11° C | 63% | 1016.3 hPa | 0 mm | - | - | - |
| 1777715593 | 11.11° C | 67% | 1016.4 hPa | 0 mm | - | - | - |
| 1777715292 | 10.56° C | 66% | 1016.5 hPa | 0 mm | - | - | - |
| 1777714992 | 10.56° C | 67% | 1016.4 hPa | 0 mm | - | - | - |
| 1777714692 | 10.56° C | 66% | 1016.5 hPa | 0 mm | - | - | - |
| 1777714392 | 10.56° C | 65% | 1016.5 hPa | 0 mm | - | - | - |
| 1777714090 | 11.11° C | 68% | 1016.5 hPa | 0 mm | - | - | - |
| 1777713791 | 11.67° C | 67% | 1016.5 hPa | 0 mm | - | - | - |
| 1777713490 | 11.11° C | 67% | 1016.5 hPa | 0 mm | - | - | - |
| 1777713191 | 11.67° C | 69% | 1016.7 hPa | 0 mm | - | - | - |
| 1777712890 | 11.11° C | 67% | 1016.8 hPa | 0 mm | - | - | - |
| 1777712589 | 11.11° C | 66% | 1016.8 hPa | 0 mm | - | - | - |
| 1777712289 | 11.11° C | 66% | 1016.9 hPa | 0 mm | - | - | - |
| 1777711989 | 10.56° C | 69% | 1016.9 hPa | 0 mm | - | - | - |
| 1777711690 | 10.56° C | 69% | 1016.8 hPa | 0 mm | - | - | - |
| 1777711389 | 10° C | 69% | 1016.8 hPa | 0 mm | - | - | - |
| 1777711088 | 10° C | 69% | 1016.7 hPa | 0 mm | - | - | - |
| 1777710788 | 10° C | 68% | 1016.6 hPa | 0 mm | - | - | - |
| 1777710488 | 10.56° C | 68% | 1016.7 hPa | 0 mm | - | - | - |
| 1777710188 | 10° C | 69% | 1016.7 hPa | 0 mm | - | - | - |
| 1777709888 | 10.56° C | 68% | 1016.7 hPa | 0 mm | - | - | - |
* Rain latest hour (hover to see other rain measurements)
** Current wind speed in m/s (hover to see current wind gust speed)